www.pogodaiklimat.ru
ПОГОДА в Йохви
Время
(UTC), дата
13 9.10
14 9.10
15 9.10
16 9.10
17 9.10
18 9.10
19 9.10
20 9.10
21 9.10
22 9.10
23 9.10
00 10.10
01 10.10
02 10.10
03 10.10
04 10.10
05 10.10
06 10.10
07 10.10
08 10.10
09 10.10
10 10.10
11 10.10
12 10.10
13 10.10
14 10.10
15 10.10
16 10.10
17 10.10
18 10.10
19 10.10
20 10.10
21 10.10
22 10.10
23 10.10
00 11.10
01 11.10
02 11.10
03 11.10
04 11.10
05 11.10
06 11.10
07 11.10
08 11.10
09 11.10
10 11.10
11 11.10
12 11.10
13 11.10
14 11.10
15 11.10
16 11.10
17 11.10
18 11.10
19 11.10
20 11.10
21 11.10
22 11.10
23 11.10
00 12.10
01 12.10
02 12.10
03 12.10
04 12.10
05 12.10
06 12.10
07 12.10
08 12.10
09 12.10
10 12.10
11 12.10
12 12.10
13 12.10
14 12.10
15 12.10
16 12.10
17 12.10
18 12.10
19 12.10
20 12.10
21 12.10
22 12.10
23 12.10
00 13.10
01 13.10
02 13.10
03 13.10
04 13.10
05 13.10
06 13.10
07 13.10
08 13.10
09 13.10
10 13.10
11 13.10
12 13.10
13 13.10
14 13.10
15 13.10
16 13.10
17 13.10
18 13.10
19 13.10
20 13.10
21 13.10
22 13.10
23 13.10
00 14.10
01 14.10
02 14.10
03 14.10
04 14.10
05 14.10
06 14.10
07 14.10
08 14.10
09 14.10
10 14.10
11 14.10
12 14.10
13 14.10
14 14.10
15 14.10
16 14.10
17 14.10
18 14.10
19 14.10
20 14.10
21 14.10
22 14.10
23 14.10
00 15.10
01 15.10
02 15.10
03 15.10
04 15.10
05 15.10
06 15.10
07 15.10
08 15.10
09 15.10
10 15.10
11 15.10
12 15.10
13 15.10
14 15.10
15 15.10
16 15.10
17 15.10
18 15.10
19 15.10
20 15.10
21 15.10
22 15.10
23 15.10
00 16.10
01 16.10
02 16.10
03 16.10
04 16.10
05 16.10
06 16.10
07 16.10
09 16.10
10 16.10
11 16.10
Ветер
(напр.,м/с)
Видим. Явления Облачность Т
(С)
Тd
(С)
f
(%)
Тe
(С)
Тes
(С)
Комфортность P
(гПа)
Po
(гПа)
Тmin
(С)
Tmax
(С)
R
(мм)
R24
(мм)
S
(см)
н/о
ЮЗ 3 20 км н/о +5.7 +5.0 95 +2 +2 по сезону 1002.9 994.0
Ю 3 10 км слаб. ливневой дождь 10/10 300 м
[As trans]
+5.5 +4.0 90 +2 +2 по сезону 1003.4 994.5 +4.0 +6.1
Ю 2 5000 м н/о +5.0 +5.1 100 +2 +2 по сезону 1003.6 994.7 0.1
ЮЗ 3 7000 м н/о +5.2 +5.1 99 +2 +2 по сезону 1003.8 994.9 0.1
ЮЗ 3 11 км слаб. дождь 10/10 600 м
[As op]
+5.1 +5.0 99 +1 +1 по сезону 1004.0 995.1 +4.2 +6.1 0.2
Ю 3 15 км н/о +5.1 +4.8 98 +1 +1 по сезону 1004.1 995.1
Ю 2 16 км н/о +5.1 +4.9 99 +2 +2 по сезону 1004.3 995.3
Ю 3 4600 м слаб. дождь 10/10 600 м
[Ac trans]
+5.0 +4.8 99 +1 +1 по сезону 1003.9 994.9 +4.8 +6.1 1
Ю 3 1700 м н/о +5.2 +5.4 100 +1 +1 по сезону 1003.7 994.8 0.1
Ю 2 9000 м н/о +5.6 +5.8 100 +3 +3 по сезону 1003.5 994.6
Ю 2 н/о дымка {ливн. осадки} 10/10 50 м
[Ci ing]
+5.9 +5.0 94 +3 +3 по сезону 1003.2 994.3 +5.0 +6.1 0.1
Ю 3 2800 м н/о +6.1 +6.3 100 +3 +3 по сезону 1002.9 994.0
Ю 3 1400 м н/о +5.9 +6.3 100 +2 +2 по сезону 1002.5 993.6
Ю 3 4100 м в посл. час туман {дымка} 10/10 50 м
[Ci sp]
+6.0 +5.0 93 +2 +2 по сезону 1002.3 993.4 +5.0 +6.1
Ю 3 9000 м н/о +6.3 +6.4 100 +3 +3 по сезону 1002.2 993.3
ЮВ 2 500 м н/о +6.0 +6.4 100 +3 +3 по сезону 1001.8 992.9
ЮВ 2 700 м туман {дымка} н/о +6.4 +6.8 100 +4 +4 по сезону 1001.5 992.6 +5.0 +6.4
Ю 2 600 м н/о +7.1 +7.4 100 +5 +5 тепло 1001.4 992.6
Ю 3 500 м н/о +7.3 +7.7 100 +4 +4 по сезону 1001.2 992.4
Ю 3 3500 м слаб. ливневой дождь 9/9 50 м
[Ci sp]
+7.8 +5.0 82 +5 +5 тепло 1001.0 992.2 +5.0 +7.9 0.2
Ю 3 20 км н/о +8.7 +8.6 99 +6 +6 тепло 1000.9 992.1 0.1
Ю 2 8000 м н/о +8.6 +8.6 100 +7 +7 тепло 1000.7 991.9
ЮВ 1 16 км в посл. час дождь 10/10 100 м
[Ci]
+8.7 +8.6 99 +8 +8 тепло 1000.6 991.8 +5.8 +8.8 0.1
Ю 2 20 км н/о +9.2 +8.6 96 +7 +7 тепло 1000.5 991.7
Ю 2 16 км н/о +8.9 +8.7 99 +7 +7 тепло 1000.6 991.8
ЮЗ 2 6000 м слаб. ливневой дождь 9/9 300 м
[As trans Cs]
+8.6 +5.9 83 +7 +7 тепло 1000.6 991.9 +5.9 +9.3
Ю 2 6000 м н/о +8.0 +8.1 100 +6 +6 тепло 1000.9 992.1 0.1
ЮЗ 2 6000 м н/о +7.7 +7.9 100 +5 +5 тепло 1001.1 992.3
Ю 2 900 м туман {ливн. осадки} н/о +7.2 +7.6 100 +5 +5 тепло 1001.3 992.5 +6.4 +9.3 0.1
Ю 2 800 м н/о +7.2 +7.5 100 +5 +5 тепло 1001.4 992.5
ЮЗ 2 400 м н/о +6.8 +7.4 100 +4 +4 по сезону 1001.6 992.7
ЮЗ 2 9000 м в посл. час туман 9/9 <50 м
[Ci sp]
+6.4 +6.3 99 +4 +4 по сезону 1001.8 992.9 +6.3 +9.3
ЮЗ 2 8000 м н/о +6.1 +6.5 100 +3 +3 по сезону 1001.9 993.0
ЮЗ 2 1000 м н/о +5.1 +5.5 100 +2 +2 по сезону 1002.1 993.2
ЮЗ 2 13 км {дымка} 10/10 1500 м
[Ac und Cs]
+5.8 +4.7 93 +3 +3 по сезону 1002.2 993.3 +4.7 +9.3
Ю 2 11 км н/о +6.2 +6.4 100 +4 +4 по сезону 1002.2 993.3
ЮЗ 3 13 км н/о +6.6 +6.8 100 +3 +3 по сезону 1002.3 993.4
ЮЗ 3 8000 м дымка 10/10 50 м
[Ci sp]
+6.6 +4.7 88 +3 +3 по сезону 1002.3 993.5 +4.7 +8.6
ЮЗ 4 6000 м н/о +6.8 +7.2 100 +3 +3 по сезону 1002.2 993.4
ЮЗ 4 8000 м н/о +7.1 +7.4 100 +3 +3 по сезону 1002.2 993.4
Ю 5 13 км в посл. час дождь {ливн. осадки} 10/10 50 м
[Ci ing]
+7.6 +7.8 100 +3 +3 по сезону 1002.4 993.5 +4.7 +7.6 0.1
ЮЗ 5 20 км н/о +8.0 +7.9 99 +4 +4 по сезону 1002.4 993.6
ЮЗ 6 20 км н/о +8.5 +8.2 98 +4 +4 по сезону 1002.5 993.7
Ю 5
{9}
20 км в посл. час дождь {ливн. осадки} 9/9 200 м
[Cs]
+8.9 +4.7 75 +5 +5 тепло 1002.7 993.9 +4.7 +9.2
ЮЗ 5 20 км н/о +9.5 +9.3 99 +6 +6 тепло 1002.7 994.0
ЮЗ 5 20 км н/о +10.7 +9.6 93 +8 +8 тепло 1002.3 993.6
ЮЗ 4
{8}
20 км в посл. час дождь со снегом {ливн. осадки} 9/9 300 м
[As trans Ci fib]
+10.8 +8.9 88 +8 +8 тепло 1002.3 993.5 +5.8 +11.1
ЮЗ 4 20 км н/о +10.1 +8.0 87 +7 +7 тепло 1002.2 993.5
Ю 4 20 км н/о +10.2 +8.9 92 +7 +7 тепло 1001.8 993.1
Ю 5 20 км слаб. морось 9/9 1000 м
[Ac lent Cs]
+9.7 +6.6 81 +6 +6 тепло 1001.6 992.9 +6.6 +11.2
Ю 5 20 км н/о +9.2 +8.7 97 +6 +6 тепло 1001.4 992.6
Ю 5 20 км н/о +9.4 +9.0 97 +6 +6 тепло 1001.2 992.4
Ю 6-9
{9}
20 км 9/9 100 м
[Cs]
+9.3 +9.1 99 +5 +5 тепло 1000.7 992.0 +7.6 +11.2
Ю 5 14 км н/о +9.1 +8.9 99 +5 +5 тепло 1000.3 991.6 1
Ю 4 20 км н/о +9.0 +8.8 99 +6 +6 тепло 999.4 990.7 0.6
Ю 6-9
{9}
н/о слаб. ливневой дождь 10/10 200 м
[Cs]
+8.9 +8.8 99 +5 +5 тепло 998.6 989.9 +8.8 +11.2 2
Ю 7 15 км н/о +8.9 +8.8 99 +5 +5 тепло 998.1 989.4 0.8
Ю 6 20 км н/о +9.5 +9.2 98 +6 +6 тепло 997.2 988.5 0.2
Ю 6-9
{11}
20 км {дождь} 10/10 100 м
[Cs]
+9.6 +9.3 98 +6 +6 тепло 996.6 987.9 +8.8 +11.2 1
Ю 7 10 км н/о +9.4 +9.3 99 +5 +5 тепло 995.5 986.8
Ю 6 16 км н/о +9.6 +9.5 99 +6 +6 тепло 993.9 985.2 0.7
Ю 6-10
{11}
12 км слаб. дождь 10/10 100 м
[Cs]
+9.9 +8.8 93 +6 +6 тепло 991.7 983.0 +8.8 +9.9 2
Ю 9 4400 м н/о +10.0 +9.8 99 +6 +6 тепло 989.5 980.8 2
ЮЗ 8 9000 м н/о +10.3 +10.0 98 +6 +6 тепло 988.5 979.9 2
ЮЗ 5
{15}
16 км слаб. дождь 10/10 300 м
[As op]
+10.2 +9.8 97 +7 +7 тепло 988.3 979.7 +8.8 +10.6 3
ЮЗ 7 20 км н/о +10.3 +9.4 94 +7 +7 тепло 988.4 979.7 0.7
ЮЗ 6 20 км н/о +10.4 +9.6 95 +7 +7 тепло 988.8 980.2
З 7-14
{14}
20 км слаб. ливневой дождь 9/9 300 м
[As trans Cs]
+11.2 +8.8 85 +8 +8 тепло 989.3 980.7 +8.8 +11.6 0.7
З 8 20 км н/о +11.7 +8.2 79 +8 +8 тепло 989.6 981.0
12 км н/о +9.7 +8.6 93 990.5 981.9 0.6
З 5 20 км в посл. час дождь со снегом {ливн. осадки} 9/9 600 м
[As op Ci sp]
+10.6 +8.4 86 +8 +8 тепло 991.4 982.7 +9.4 +11.8 0.6
З 6 20 км н/о +10.5 +7.8 83 +7 +7 тепло 992.3 983.7
З 6 20 км н/о +10.1 +6.8 80 +7 +7 тепло 993.3 984.7
-9
{13}
20 км 9/9 600 м
[As op Cs]
+10.0 +9.8 99 994.4 985.8 +9.8 +11.8
З 4 20 км н/о +9.6 +6.5 81 +7 +7 тепло 995.5 986.8
З 4 20 км н/о +9.1 +6.5 84 +6 +6 тепло 996.4 987.7
З 4-9
{12}
20 км 9/9 1000 м
[Ac lent Ci sp]
+9.0 +6.5 84 +6 +6 тепло 997.2 988.5 +8.9 +12.0
З 3 20 км н/о +8.2 +6.6 90 +5 +5 тепло 998.1 989.3
н/о
ЮЗ 5 20 км 10/10 1000 м
[Ac lent Ci]
+8.3 +7.4 94 +4 +4 по сезону 999.1 990.4 +7.4 +11.8
ЮЗ 4 20 км н/о +8.1 +8.0 99 +5 +5 тепло 999.2 990.4 0.1
ЮЗ 4 20 км н/о +8.1 +7.8 98 +5 +5 тепло 999.4 990.6 0.1
З 5
{9}
20 км ливневой дождь н/о +8.1 +7.3 95 +4 +4 по сезону 999.7 990.9 +7.4 +11.3 0.5
ЮЗ 4 20 км н/о +8.5 +8.0 97 +5 +5 тепло 999.9 991.1 0.5
ЮЗ 3 20 км н/о +7.0 +7.2 100 +4 +4 по сезону 999.9 991.1 0.2
ЮЗ 4 20 км в посл. час дождь {ливн. осадки} 9/9 300 м
[As trans Cc]
+8.2 +5.8 85 +5 +5 тепло 1000.0 991.2 +5.8 +10.0 0.7
ЮЗ 5 20 км н/о +8.1 +7.8 98 +4 +4 по сезону 1000.2 991.4
ЮЗ 5 20 км н/о +8.6 +8.4 99 +5 +5 тепло 1000.7 991.9 0.1
ЮЗ 5 20 км в посл. час дождь со снегом {ливн. осадки} 9/9 200 м
[Cs]
+9.0 +8.8 99 +5 +5 тепло 1001.2 992.4 +5.8 +9.0 0.2
З 5 10 км н/о +9.7 +9.1 96 +6 +6 тепло 1001.8 993.1
З 6 16 км н/о +10.2 +9.2 94 +7 +7 тепло 1002.6 993.9 0.5
ЮЗ 5-9
{10}
20 км в посл. час дождь {ливн. осадки} 9/9 300 м
[As trans Ci]
+10.7 +5.8 72 +8 +8 тепло 1003.2 994.4 +5.8 +10.8 3
З 6 5000 м н/о +10.4 +9.3 93 +7 +7 тепло 1003.7 995.0 0.4
З 3 20 км н/о +10.1 +9.0 93 +8 +8 тепло 1004.6 995.8 2
З 4
{12}
20 км в посл. час дождь {ливн. осадки} 9/5 1000 м
[Ac lent Ci fib]
+10.7 +9.3 91 +8 +8 тепло 1005.5 996.8 +5.8 +11.9 5
З 3 20 км н/о +10.5 +8.9 90 +8 +8 тепло 1006.3 997.5
З 3 20 км н/о +10.1 +7.4 83 +8 +8 тепло 1007.0 998.3
З 3
{10}
20 км ясно +8.8 +8.1 95 +6 +6 тепло 1008.2 999.4 +8.1 +11.9
З 3 20 км н/о +7.7 +5.3 85 +5 +5 тепло 1009.4 1000.5
З 3 20 км н/о +7.4 +5.0 85 +5 +5 тепло 1010.3 1001.4
З 2 20 км ясно +6.4 +5.0 91 +4 +4 по сезону 1010.9 1002.0 +6.3 +11.9
З 3 20 км н/о +5.8 +4.8 93 +2 +2 по сезону 1012.0 1003.0
ЮЗ 3 20 км н/о +4.5 +4.2 98 +1 +1 по сезону 1012.3 1003.3
ЮЗ 3 20 км ясно +3.7 +3.5 99 1013.0 1004.0 +3.5 +11.9
З 3 20 км н/о +3.9 +3.7 99 1013.7 1004.6 +3.5 +10.9
З 1 20 км н/о +3.1 +3.2 100 +1 +1 по сезону 1013.6 1004.5
ЮЗ 1 600 м туман н/о +1.9 +2.1 100 1013.8 1004.7 +1.0 +10.9
Ю 2 3200 м н/о +0.7 +1.1 100 -3 -3 прохладно 1013.1 1003.9
Ю 1 15 км н/о +1.4 +1.7 100 -1 -1 по сезону 1012.7 1003.6
Ю 2 20 км 10/0
[Ac cuf Ci ing]
+2.6 +0.3 85 -1 -1 по сезону 1012.5 1003.4 +0.3 +8.9
Ю 2 20 км н/о +3.4 +3.6 100 0 0 по сезону 1011.3 1002.3
Ю 2 12 км н/о +5.0 +5.2 100 +2 +2 по сезону 1010.2 1001.3 0.2
ЮВ 3 20 км слаб. дождь 9/9 50 м
[Ci ing]
+5.6 +0.3 69 +2 +2 по сезону 1009.1 1000.2 +0.3 +6.5 1
ЮВ 3 12 км н/о +5.9 +6.1 100 +2 +2 по сезону 1008.7 999.7 1
ЮВ 3 13 км н/о +6.2 +6.2 100 +3 +3 по сезону 1007.3 998.4 2
ЮВ 4 11 км сильн. морось {дождь} 9/9 100 м
[Ci]
+6.3 +0.3 65 +2 +2 по сезону 1005.7 996.8 +0.3 +6.4 3
ЮВ 5 12 км н/о +6.2 +6.0 99 +2 +2 по сезону 1004.3 995.4 0.6
ЮВ 5 19 км н/о +6.2 +6.0 99 +2 +2 по сезону 1002.7 993.8 0.2
ЮВ 3-8
{10}
15 км слаб. ливневой дождь 10/10 100 м
[Ci]
+6.5 +6.5 100 +3 +3 по сезону 1001.8 993.0 +0.3 +6.5 0.9
СВ 3 2700 м н/о +6.6 +6.7 100 +3 +3 по сезону 1002.3 993.4 0.4
СВ 6 6000 м н/о +6.7 +6.5 99 +2 +2 по сезону 1003.2 994.3 0.9
СВ 6-10
{13}
20 км слаб. морось {дождь} 10/10 200 м
[Cs]
+6.2 +2.6 78 +1 +1 по сезону 1004.7 995.9 +2.6 +6.7 1
СВ 5 20 км н/о +6.1 +5.1 93 +2 +2 по сезону 1006.4 997.5
СВ 4 20 км н/о +5.9 +5.0 94 +2 +2 по сезону 1008.4 999.5
СВ 4
{10}
20 км ливневой дождь 10/10 300 м
[As trans Ci ing]
+5.7 +4.9 95 +2 +2 по сезону 1009.4 1000.5 +5.6 +6.7
СВ 2 20 км н/о +6.0 +4.8 92 +3 +3 по сезону 1011.4 1002.4
СВ 4 20 км н/о +6.3 +4.2 86 +3 +3 по сезону 1012.6 1003.6
20 км 10/10 300 м
[As trans Cs]
+6.1 +5.7 97 1014.2 1005.2 +5.7 +6.7
С 2 20 км н/о +6.0 +4.3 89 +4 +4 по сезону 1015.4 1006.4
н/о
С 2 20 км н/о +5.2 +3.6 89 +3 +3 по сезону 1017.5 1008.5 +5.2 +6.7
С 2 20 км н/о +4.9 +2.6 85 +2 +2 по сезону 1018.6 1009.6
С 2 20 км н/о +3.8 +2.0 88 +1 +1 по сезону 1019.5 1010.4
СЗ 1 20 км 9/9 600 м
[As op Cs]
+3.8 +3.7 99 +2 +2 по сезону 1020.4 1011.3 +3.7 +6.4
СЗ 2 20 км н/о +2.9 +1.4 90 -0 -0 по сезону 1020.8 1011.6
С 1 20 км н/о +2.3 +1.0 91 +1 +1 по сезону 1021.5 1012.3
СЗ 1 20 км ясно +3.0 +1.3 89 +1 +1 по сезону 1022.2 1013.0 +0.3 +6.4
ЮЗ 1 20 км н/о +5.2 +2.2 81 +4 +4 по сезону 1022.8 1013.7
ЮВ 1 20 км н/о +6.4 +1.5 71 +6 +6 тепло 1023.4 1014.4
ЮВ 2 20 км 4/4 600 м
[As op Ci]
+6.8 +0.3 63 +5 +6 тепло 1023.7 1014.6 +0.3 +7.2
штиль 0 20 км н/о +6.4 0.0 64 +6 +6 тепло 1023.9 1014.8
З 1 20 км н/о +7.6 +1.4 65 +7 +7 тепло 1023.8 1014.8
Ю 2 20 км 9/9
[Ac cuf Cs]
+7.6 +1.3 64 +6 +6 тепло 1023.7 1014.7 +0.3 +8.4
ЮВ 3 20 км н/о +6.7 +1.5 69 +4 +4 по сезону 1023.1 1014.1
ЮВ 2 20 км н/о +6.1 +1.1 70 +4 +4 по сезону 1023.4 1014.3
В 3 20 км 9/0
[Ac cuf Ci sp]
+5.6 +0.3 69 +2 +2 по сезону 1023.5 1014.4 +0.3 +8.4
В 3 20 км н/о +5.1 +1.9 80 +2 +2 по сезону 1023.2 1014.1
В 3 20 км н/о +4.9 +2.1 82 +1 +1 по сезону 1023.2 1014.1
ЮВ 3 20 км 10/0
[Ac cuf]
+4.8 +1.7 80 +1 +1 по сезону 1022.7 1013.6 +2.4 +8.4
ЮВ 4 20 км н/о +4.9 +1.5 79 +1 +1 по сезону 1022.4 1013.3
ЮВ 4 20 км н/о +4.8 +1.5 79 +1 +1 по сезону 1022.6 1013.5
ЮВ 4 20 км 10/0 2000 м
[Ac und Cs]
+4.6 +4.5 99 1021.9 1012.8 +4.5 +8.4
ЮВ 4 20 км н/о +4.6 +1.6 81 0 0 по сезону 1021.4 1012.3
ЮВ 4 20 км н/о +4.6 +1.8 82 0 0 по сезону 1021.1 1012.0
ЮВ 4
{8}
20 км ливневой дождь 9/0 2000 м
[Ac und Cs]
+4.5 +1.8 83 0 0 по сезону 1020.2 1011.1 +4.4 +8.3
ЮВ 4 12 км н/о +4.0 +2.6 91 -1 -1 по сезону 1019.3 1010.2 0.5
ЮВ 5 20 км н/о +4.0 +2.7 91 -1 -1 по сезону 1018.0 1009.0 0.2
ЮВ 5-9
{9}
20 км {ливн. осадки} 10/10 600 м
[As op Ci fib]
+4.2 +3.9 98 -1 -1 по сезону 1016.9 1007.8 +3.9 +5.6 0.7
ЮВ 5 20 км н/о +4.4 +2.9 90 -1 -1 по сезону 1016.0 1006.9
ЮВ 5 20 км н/о +4.6 +3.1 90 -0 -0 по сезону 1015.1 1006.0
ЮВ 4
{9}
20 км 10/10 300 м
[As trans Cs]
+4.9 +3.3 89 +1 +1 по сезону 1014.6 1005.6 +3.9 +5.1
ЮВ 5 20 км н/о +5.1 +3.5 89 0 0 по сезону 1013.7 1004.7
ЮВ 5
{11}
20 км 10/10 600 м
[]
+6.1 +3.9 86 +2 +2 по сезону 1012.4 1003.4 +3.9 +6.2
ЮВ 5 20 км н/о +6.8 +4.3 84 +3 +3 по сезону 1011.3 1002.4
ЮВ 4 20 км н/о +8.0 +5.0 81 +5 +5 тепло 1010.8 1001.9
Местоположение метеостанции Йохви (Эстония): широта 59.33 долгота 27.38 высота над уровнем моря 75 м.
В архиве по умолчанию представлена погода в Йохви за последнюю неделю. Архивные данные за месяц целиком и за предыдущие месяцы, начиная с января 2011 года, Вы можете получить, выбрав интересующий диапазон дат из раскрывающегося списка и нажав кнопку "Найти!".
*Определитесь, кто Вы:
Внимание! Время в таблицах - всемирное. Для получения местного времени необходимо прибавить поправку, которая равна 2 ч.
Смотрите также архив погоды в соседних городах и на ближайших метеорологических станциях:
Партнеры нашего сайта:      
Пояснения к столбцам:
  • Ветер - указаны скорость ветра в м/с - средняя за 10 мин, порывы в срок и между сроками (в фигурных скобках) и направление, откуда дует ветер: С - северный,
  • СВ - северо-восточный, В - восточный, ЮВ - юго-восточный, Ю - южный, ЮЗ - юго-западный, З - западный, СЗ - северо-западный.
  • Видимость - горизонтальная дальность видимости в метрах или километрах. При видимости от 1 до 10 км при отсутствии осадков обычно наблюдается дымка, при ухудшении видимости до 1 км и менее - туман. В сухую погоду видимость может ухудшаться дымом, пылью или мглою.
  • Явления - указаны атмосферные явления, наблюдавшиеся в срок или в последний час перед сроком; фигурными скобками обозначены явления, наблюдавшиеся между сроками (за 1-3 часа до срока); квадратными скобками обозначены град или гололедные отложения с указанием их диаметра в мм.
  • Облачность - указаны через наклонную черту общая и нижняя облачность в баллах и высота нижней границы облаков в метрах; квадратными скобками обозначены формы облаков: Ci - перистые, Cs - перисто-слоистые, Cc - перисто-кучевые, Ac - высококучевые, As - высокослоистые, Sc - слоисто-кучевые, Ns - слоисто-дождевые, Cu - кучевые, Cb - кучево-дождевые. Подробнее классификацию облаков см. в Атласе облаков (PDF).
  • T - Температура воздуха - температура, измеренная на высоте 2 м над землей.
  • Td - Температура точки росы - температура, при понижении до которой содержащийся в воздухе водяной пар достигнет насыщения.
  • f - Относительная влажность воздуха - влажноcть воздуха, измеренная на высоте 2 м над землей.
  • Te - Эффективная температура - температура, которую ощущает одетый по сезону человек в тени. Характеристика душности погоды. При расчете учитывается влияние влажности воздуха и скорости ветра на теплоощущения человека.
  • Tes - Эффективная температура на солнце - температура, которую ощущает человек, с поправкой на солнечный нагрев. Характеристика знойности погоды. Зависит от высоты солнца над горизонтом, облачности и скорости ветра. Ночью, в пасмурную погоду, а также при ветре 12 м/с и более поправка равна нулю.
  • P - Атмосферное давление - приведенное к уровню моря атмосферное давление.
  • Po - Атмосферное давление - измеренное на уровне метеостанции атмосферное давление.
  • Tmin - Минимальная температура - минимум температуры воздуха на высоте 2 м над землей.
  • Tmax - Максимальная температура - максимум температуры воздуха на высоте 2 м над землей.
  • R - Количество осадков - Количество выпавших осадков за период времени, мм. При наведении курсора мыши на число - период времени, за который выпало указанное количество осадков.
  • R24 - Количество осадков - Количество выпавших осадков за 24 часа, мм.
  • S - Снежный покров - Высота снежного покрова, см. При наведении курсора мыши на число - состояние снежного покрова и степень покрытия местности в баллах.